Zurück zum Katalog

LKW-2

AktivMilitärSSO
NORAD 43080·PAYLOAD·🇨🇳 China

Gestartet Dec 23, 2017 von Jiuquan Satellite Launch Center

Loading…

Nächste Überflüge (nächste 24 Stunden)

TLE

AktuellSource: Space-Track

Epoche: Sep 14, 2026, 14:47 UTC

1 43080U 17084A   26257.61610034  .00004143  00000-0  15730-3 0  9999
2 43080  97.1120 293.2606 0000516 355.0898   5.0336 15.27350308485339

Verfolge LKW-2 in Echtzeit mit AllMySat

Download on the App Store